Regional Weather Roundup
Issued by NWS Charleston, SC

Current Version | Previous Version | Graphics & Text | Print | Product List | Glossary On
Versions: 1 2 3 4 5 6 7 8 9 10 11 12 13 14 15 16 17 18 19 20 21 22 23 24 25 26 27 28 29 30 31 32 33 34 35 36 37 38 39 40 41 42 43 44 45 46 47 48 49 50
000
ASUS42 KCHS 090312
RWRCHS

REGIONAL WEATHER ROUNDUP
NATIONAL WEATHER SERVICE CHARLESTON SC
1000 PM EST MON FEB 08 2016

NOTE: "FAIR" INDICATES FEW OR NO CLOUDS BELOW 12,000 FEET WITH NO
SIGNIFICANT WEATHER AND/OR OBSTRUCTIONS TO VISIBILITY.

NOT ALL STATIONS ARE QUALITY CONTROLLED BY THE NATIONAL
WEATHER SERVICE. USE DATA WITH CAUTION...ESPECIALLY
DEWPOINT OBSERVATIONS.

NOTICE: OBSERVATIONS FOR THE SAVANNAH-HILTON HEAD INTERNATIONAL AIRPORT
/KSAV/ HAVE BEEN TEMPORARILY REMOVED DUE TO AN ERRONEOUS TEMPERATURE
SENSOR. THE OBSERVATION WILL BE REINTRODUCED ONCE REPAIRS ARE COMPLETE.

SCZ027-030-031-034>040-042>050-090400-
...SOUTHEAST SOUTH CAROLINA...

CITY           SKY/WX    TMP DP  RH WIND       PRES   REMARKS
N CHARLESTON   CLOUDY    45  42  89 S5        29.72F
WATERFRONT PRK   N/A     46  43  89 CALM      29.57F
MOUNT PLEASANT FAIR      46  43  87 CALM      29.72F
JOHNS ISLAND   CLOUDY    46  45  93 CALM      29.73S
PINOPOLIS        N/A     46  43  87 SW6       29.64R
MONCKS CORNER  CLOUDY    43  37  81 CALM      29.70F
SUMMERVILLE    CLOUDY    45  45 100 SW3       29.73S
BEAUFORT MCAS  MOCLDY    45  42  89 SW8       29.76R
BEAUFORT ARPT  FAIR      46  43  87 W5        29.74S
HILTON HEAD IS CLOUDY    46  43  87 SW7       29.77R
WALTERBORO     CLOUDY    46  45  93 SW5       29.74R
ALLENDALE      FAIR      43  41  93 CALM      29.75R

...SOUTHERN MIDLANDS AND PEE DEE...

CITY           SKY/WX    TMP DP  RH WIND       PRES   REMARKS
GEORGETOWN     NOT AVBL
KINGSTREE      NOT AVBL
ORANGEBURG     PTCLDY    42  40  92 SW7       29.72S
BARNWELL       FAIR      43  39  87 W6        29.75R
AIKEN          FAIR      41  25  52 W7        29.76S
MANNING        MOCLDY    43  41  93 CALM      29.71F
COLUMBIA       CLEAR     39  32  76 W5        29.71S WCI  36
SUMTER         PTCLDY    38  36  90 SW3       29.68F
FLORENCE       MOCLDY    42  41  96 SW3       29.68F
MYRTLE BEACH   CLOUDY    46  39  76 CALM      29.72F
N MYRTLE BEACH CLOUDY    47  42  83 SW3       29.69F

$$

GAZ063-065-086>088-099>101-113>116-118-119-134>141-150-090400-
...SOUTHEAST GEORGIA...

CITY           SKY/WX    TMP DP  RH WIND       PRES   REMARKS
SAVANNAH ARPT  MOCLDY    45  42  89 SW6       29.78R
HUNTER AAF     MOCLDY    46  45  99 W7        29.75F
FORT STEWART   NOT AVBL
STATESBORO     CLEAR     47  33  57 W6        29.78R
SYLVANIA       CLEAR     42  40  94 W5        29.78R
CLAXTON        FAIR      42  42 100 CALM      29.79S FOG

...CSRA...CENTRAL AND FAR SOUTHEAST GEORGIA...

CITY           SKY/WX    TMP DP  RH WIND       PRES   REMARKS
THOMSON        CLEAR     46  26  47 W13       29.80S
AUGUSTA-BUSH   CLEAR     42  28  57 W6        29.76R
AUGUSTA-DANIEL CLEAR     46  22  38 W10       29.75S
SWAINSBORO     FAIR      39  34  81 NW5       29.80R WCI  36
VIDALIA        CLEAR     41  36  81 CALM      29.80R
EASTMAN        FAIR      46  26  46 NW5       29.84R
HAZLEHURST     FAIR      42  41  95 CALM      29.80R
ALMA           PTCLDY    46  39  76 NW9       29.81R
WAYCROSS       CLOUDY    50  46  85 NW7       29.82R
JESUP          CLOUDY    48  46  93 CALM      29.80S
BAXLEY         FAIR      45  45 100 W6        29.81R
BRUNSWICK      DRIZZLE   46  46 100 W3        29.82R
SAINT SIMONS   CLOUDY    47  46  97 W3        29.80R

$$

SCZ027-028-034-036>038-045-046-048>050-GAZ119-141-090400-
...LAKE AND SUPPLEMENTAL COASTAL OBSERVATIONS...

STATION/POSITION TIME  TEMP    WIND        PRES    WAVE   SWELL
                       AIR SEA DIR/SP/G            HT/PER HT/PER/DIR
                 (UTC) (F)     (DEG/KT/KT) (MB)    (FT/S) (FT/S/D)
WINYAH BAY       NOT AVBL
LAKE MURRAY      0200   46     250/  8/ 12 1005.4S
ACE BASIN NERRS  0145   46     290/  1     1007.0
FORT PULASKI     0200   48 53  290/ 10/ 12 1007.6F
SAPELO ISLAND    0200   48     260/  5     1008.0F

$$

ANZ835-935-AMZ111-154-330-350-352-354-370-450-454-472-090400-
...C-MAN AND BUOY OBSERVATIONS...

STATION/POSITION TIME  TEMP    WIND        PRES    WAVE   SWELL
                       AIR SEA DIR/SP/G            HT/PER HT/PER/DIR
                 (UTC) (F)     (DEG/KT/KT) (MB)    (FT/S) (FT/S/D)
BUOY 41004       0250   53 65  280/ 25/ 31 1005.8S   8/ 7   3/16
BUOY 41008       0250   50 55  290/ 10/ 12 1008.7R   4/ 6   2/190/ 6
FOLLY BEACH CMAN 0300   45     270/  2/  3 1006.8F
CAPERS NEARSHORE 0208   49     290/ 16/ 21 1006.7F
FRIPP NEARSHORE  0200   49     310/ 17/ 21 1006.9F


STATION/POSITION TIME  TEMP    WIND        PRES    WAVE   SWELL
                       AIR SEA DIR/SP/G            HT/PER HT/PER/DIR
                 (UTC) (F)     (DEG/KT/KT) (MB)    (FT/S) (FT/S/D)
5E ST. MARYS GA  0221      55                N/A     4/18   2/100/18
FRYING PAN BUOY  0200   54 63  300/ 27/ 35 1005.8S
BUOY 41025       0250   54 74  330/ 10/ 14 1004.3F  10/16  10/ 90/16
CAPE LOOKOUT NC  NOT AVBL
BUOY 41002       0250   64 69  250/ 25/ 33   N/A    11/11   8/ 10/11
BUOY 41010       0220   68 73              1010.8F
ST AUGUSTINE FL  0300   57 57  290/  7/  9 1010.2R


$$



USA.gov is the U.S. government's official web portal to all federal, state and local government web resources and services.